📊 Raw Sensor Data

Showing records 34576 to 34600 of 84,860 total

ID Distance (ft) Battery V Battery A Int Temp (°F) Int Humid (%) Ext Temp (°F) Solar V RSSI SNR Time Stamp
50297 15.6 3.71 0 87 42 83 5.10 -69 7 08/26/2025 11:30 AM
50296 15.5 3.71 0 84 43 84 5.10 -71 8 08/26/2025 11:15 AM
50295 15.6 4.05 0 82 43 81 5.10 -69 8 08/26/2025 11:00 AM
50294 15.6 3.71 0 82 43 79 5.10 -70 8 08/26/2025 10:45 AM
50293 15.6 3.71 0 81 42 82 5.10 -71 8 08/26/2025 10:30 AM
50292 15.6 3.71 0 79 42 82 5.10 -71 7 08/26/2025 10:15 AM
50291 15.6 3.71 0 78 42 79 5.10 -73 8 08/26/2025 10:00 AM
50290 15.7 3.92 0 76 42 79 5.10 -70 8 08/26/2025 09:45 AM
50289 15.6 3.71 0 75 42 78 5.10 -71 8 08/26/2025 09:30 AM
50288 15.6 3.71 0 74 42 77 5.10 -70 8 08/26/2025 09:15 AM
50287 15.5 3.72 0 71 42 77 5.10 -71 8 08/26/2025 09:00 AM
50286 15.4 4.00 40 68 43 69 4.50 -70 8 08/26/2025 08:45 AM
50285 15.4 3.71 0 68 43 68 5.10 -71 8 08/26/2025 08:30 AM
50284 15.4 3.89 0 68 43 71 5.10 -71 8 08/26/2025 08:15 AM
50283 15.4 3.70 0 67 43 70 5.10 -70 8 08/26/2025 08:00 AM
50282 15.4 3.78 22 66 42 69 4.50 -71 8 08/26/2025 07:45 AM
50281 15.4 3.83 18 65 42 70 4.50 -70 8 08/26/2025 07:30 AM
50280 15.3 3.82 9 62 43 67 4.50 -70 8 08/26/2025 07:15 AM
50279 15.3 3.58 0 60 44 63 4.50 -71 8 08/26/2025 07:00 AM
50278 15.2 3.54 -8 59 44 60 4.50 -71 8 08/26/2025 06:45 AM
50277 15.2 3.55 -5 60 44 60 1.50 -71 8 08/26/2025 06:30 AM
50276 15.2 3.54 -5 60 44 61 0.20 -72 8 08/26/2025 06:15 AM
50275 15.2 3.54 -5 60 44 61 0.00 -71 8 08/26/2025 06:00 AM
50274 15.2 3.54 -5 61 44 61 0.00 -71 8 08/26/2025 05:45 AM
50273 15.2 3.54 -5 61 44 62 0.00 -71 8 08/26/2025 05:30 AM